Regional Weather Roundup
Issued by NWS Charleston, WV

Home | Current Version | Previous Version | Graphics & Text | Print | Product List | Glossary On
Versions: 1 2 3 4 5 6 7 8 9 10 11 12 13 14 15 16 17 18 19 20 21 22 23 24 25 26 27 28 29 30 31 32 33 34 35 36 37 38 39 40 41 42 43 44 45 46 47 48 49 50
000
ASUS41 KRLX 242010
RWRRLX
West Virginia Regional Weather Roundup
National Weather Service Charleston WV
400 PM EDT TUE APR 24 2018

Note: "fair" indicates few or no clouds below 12,000 feet with no
significant weather and/or obstructions to visibility.

WVZ003-242100-
Northern Panhandle of West Virginia

CITY           SKY/WX    TMP DP  RH WIND       PRES   REMARKS
WHEELING       LGT RAIN  53  49  86 E15       30.00F FOG
$$

WVZ009-242100-
Northwest West Virginia

CITY           SKY/WX    TMP DP  RH WIND       PRES   REMARKS
PARKERSBURG    LGT RAIN  54  52  93 NE5       29.96F FOG
$$

WVZ006-242100-
Western West Virginia

CITY           SKY/WX    TMP DP  RH WIND       PRES   REMARKS
HUNTINGTON     LGT RAIN  55  53  93 NE6       29.89F FOG
$$

WVZ015-242100-
West Central West Virginia

CITY           SKY/WX    TMP DP  RH WIND       PRES   REMARKS
CHARLESTON     CLOUDY    57  55  93 NE6       29.89F
$$

WVZ022-031-242100-
North Central West Virginia

CITY           SKY/WX    TMP DP  RH WIND       PRES   REMARKS
CLARKSBURG     LGT RAIN  55  49  80 NE6       29.95F
MORGANTOWN     LGT RAIN  53  47  79 VRB5      29.99F
$$

WVZ025-035-042-045-242100-
Southern West Virginia

CITY           SKY/WX    TMP DP  RH WIND       PRES   REMARKS
BECKLEY        CLOUDY    55  51  86 E12G20    29.88F
LOGAN          CLOUDY    55  55 100 CALM      29.87F
BLUEFIELD      CLOUDY    53  48  83 SE12G25   29.89F
LEWISBURG      CLOUDY    54  50  88 E10G16    29.93F FOG
$$

WVZ047-242100-
Northern Mountains of West Virginia

CITY           SKY/WX    TMP DP  RH WIND       PRES   REMARKS
ELKINS         PTSUNNY   57  45  64 E8G21     29.95F
$$

WVZ052-242100-
Eastern Panhandle of West Virginia

CITY           SKY/WX    TMP DP  RH WIND       PRES   REMARKS
MARTINSBURG    LGT RAIN  57  51  80 VRB7      30.10F
PETERSBURG     DRIZZLE   51  49  95 NW6       30.04F
$$



USA.gov is the U.S. government's official web portal to all federal, state and local government web resources and services.